Volver al catálogo

FENGYUN 1C DEB

ActivoSSO
NORAD 29979·DEBRIS·🇨🇳 China

Lanzado May 10, 1999 desde Taiyuan Satellite Launch Center

Loading…

Próximos Pases (próximas 24 horas)

TLE

ActualizadoSource: Space-Track

Época: Sep 13, 2026, 13:43 UTC

1 29979U 99025LD  26256.57207594  .00000703  00000-0  29010-3 0  9996
2 29979  98.3541 272.4208 0107897  75.3838  47.0202 14.26489049 19911

Sigue FENGYUN 1C DEB en tiempo real con AllMySat

Download on the App Store